Time,TemperatureF,DewpointF,PressureIn,WindDirection,WindDirectionDegrees,WindSpeedMPH,WindSpeedGustMPH,Humidity,HourlyPrecipIn,Conditions,Clouds,dailyrainin,SoftwareType,DateUTC
2016-07-27 00:14:00,61.4,60.0,29.96,West,275,0.0,-999.0,95,-99.99,,,0.00,weatherlink.com 1.10,2016-07-27 04:14:00,
2016-07-27 00:29:00,61.3,60.0,29.95,West,275,0.0,-999.0,95,-99.99,,,0.00,weatherlink.com 1.10,2016-07-27 04:29:00,
2016-07-27 00:44:00,61.0,60.0,29.95,West,275,0.0,-999.0,96,-99.99,,,0.00,weatherlink.com 1.10,2016-07-27 04:44:00,
2016-07-27 00:59:00,60.9,60.0,29.95,West,275,0.0,-999.0,96,-99.99,,,0.00,weatherlink.com 1.10,2016-07-27 04:59:00,
2016-07-27 01:14:00,60.3,59.0,29.95,West,275,0.0,-999.0,96,-99.99,,,0.00,weatherlink.com 1.10,2016-07-27 05:14:00,
2016-07-27 01:29:00,59.8,59.0,29.95,West,275,0.0,-999.0,96,-99.99,,,0.00,weatherlink.com 1.10,2016-07-27 05:29:00,
2016-07-27 01:44:00,60.1,59.0,29.95,West,275,0.0,-999.0,97,-99.99,,,0.00,weatherlink.com 1.10,2016-07-27 05:44:00,
2016-07-27 01:59:00,60.2,59.0,29.95,West,275,0.0,-999.0,97,-99.99,,,0.00,weatherlink.com 1.10,2016-07-27 05:59:00,
2016-07-27 02:14:00,60.3,59.0,29.95,West,275,0.0,-999.0,96,-99.99,,,0.00,weatherlink.com 1.10,2016-07-27 06:14:00,
2016-07-27 02:29:00,60.3,59.0,29.94,West,275,0.0,-999.0,96,-99.99,,,0.00,weatherlink.com 1.10,2016-07-27 06:29:00,
2016-07-27 02:44:00,60.3,59.0,29.94,West,275,0.0,-999.0,96,-99.99,,,0.00,weatherlink.com 1.10,2016-07-27 06:44:00,
2016-07-27 02:59:00,59.7,59.0,29.94,West,275,0.0,-999.0,96,-99.99,,,0.00,weatherlink.com 1.10,2016-07-27 06:59:00,
2016-07-27 03:14:00,59.3,59.0,29.95,West,275,0.0,-999.0,97,-99.99,,,0.00,weatherlink.com 1.10,2016-07-27 07:14:00,
2016-07-27 03:29:00,59.3,59.0,29.95,West,275,0.0,-999.0,97,-99.99,,,0.00,weatherlink.com 1.10,2016-07-27 07:29:00,
2016-07-27 03:44:00,59.3,59.0,29.94,West,275,0.0,-999.0,97,-99.99,,,0.00,weatherlink.com 1.10,2016-07-27 07:44:00,
2016-07-27 03:59:00,59.5,59.0,29.93,West,275,0.0,-999.0,97,-99.99,,,0.00,weatherlink.com 1.10,2016-07-27 07:59:00,
2016-07-27 04:14:00,59.0,58.0,29.93,West,275,0.0,-999.0,97,-99.99,,,0.00,weatherlink.com 1.10,2016-07-27 08:14:00,
2016-07-27 04:29:00,59.2,58.0,29.93,West,275,0.0,-999.0,97,-99.99,,,0.00,weatherlink.com 1.10,2016-07-27 08:29:00,
2016-07-27 04:44:00,59.0,58.0,29.93,West,275,0.0,-999.0,97,-99.99,,,0.00,weatherlink.com 1.10,2016-07-27 08:44:00,
2016-07-27 04:59:00,59.3,59.0,29.93,West,275,0.0,-999.0,97,-99.99,,,0.00,weatherlink.com 1.10,2016-07-27 08:59:00,
2016-07-27 05:14:00,59.3,59.0,29.93,West,275,0.0,-999.0,97,-99.99,,,0.00,weatherlink.com 1.10,2016-07-27 09:14:00,
2016-07-27 05:29:00,59.4,59.0,29.94,West,275,0.0,-999.0,97,-99.99,,,0.00,weatherlink.com 1.10,2016-07-27 09:29:00,
2016-07-27 05:44:00,59.2,58.0,29.94,West,275,0.0,-999.0,97,-99.99,,,0.00,weatherlink.com 1.10,2016-07-27 09:44:00,
2016-07-27 05:59:00,59.4,59.0,29.95,West,275,0.0,-999.0,97,-99.99,,,0.00,weatherlink.com 1.10,2016-07-27 09:59:00,
2016-07-27 06:15:00,59.3,59.0,29.95,West,275,0.0,-999.0,97,-99.99,,,0.00,weatherlink.com 1.10,2016-07-27 10:15:00,
2016-07-27 06:29:00,59.3,59.0,29.95,West,275,0.0,-999.0,97,-99.99,,,0.00,weatherlink.com 1.10,2016-07-27 10:29:00,
2016-07-27 06:44:00,59.9,59.0,29.96,West,275,0.0,-999.0,97,-99.99,,,0.00,weatherlink.com 1.10,2016-07-27 10:44:00,
2016-07-27 07:00:00,61.0,61.0,29.96,West,275,0.0,-999.0,98,-99.99,,,0.00,weatherlink.com 1.10,2016-07-27 11:00:00,
2016-07-27 07:14:00,62.4,62.0,29.96,West,275,0.0,-999.0,98,-99.99,,,0.00,weatherlink.com 1.10,2016-07-27 11:14:00,
2016-07-27 07:30:00,63.8,63.0,29.96,West,275,0.0,-999.0,98,-99.99,,,0.00,weatherlink.com 1.10,2016-07-27 11:30:00,
2016-07-27 07:45:00,66.1,64.0,29.96,West,275,0.0,-999.0,94,-99.99,,,0.00,weatherlink.com 1.10,2016-07-27 11:45:00,
2016-07-27 08:00:00,68.3,64.0,29.96,West,259,3.0,-999.0,86,-99.99,,,0.00,weatherlink.com 1.10,2016-07-27 12:00:00,
2016-07-27 08:15:00,69.6,64.0,29.96,WNW,288,0.0,-999.0,83,-99.99,,,0.00,weatherlink.com 1.10,2016-07-27 12:15:00,
2016-07-27 08:30:00,70.9,65.0,29.96,West,281,0.0,-999.0,82,-99.99,,,0.00,weatherlink.com 1.10,2016-07-27 12:30:00,
2016-07-27 08:45:00,71.8,66.0,29.96,WSW,254,1.0,-999.0,81,-99.99,,,0.00,weatherlink.com 1.10,2016-07-27 12:45:00,
2016-07-27 09:00:00,72.3,66.0,29.96,West,269,0.0,-999.0,81,-99.99,,,0.00,weatherlink.com 1.10,2016-07-27 13:00:00,
2016-07-27 09:15:00,72.9,67.0,29.96,West,278,0.0,-999.0,81,-99.99,,,0.00,weatherlink.com 1.10,2016-07-27 13:15:00,
2016-07-27 09:30:00,73.7,68.0,29.97,West,279,0.0,-999.0,81,-99.99,,,0.00,weatherlink.com 1.10,2016-07-27 13:30:00,
2016-07-27 09:45:00,74.7,67.0,29.96,WSW,243,4.0,-999.0,78,-99.99,,,0.00,weatherlink.com 1.10,2016-07-27 13:45:00,
2016-07-27 10:00:00,74.6,67.0,29.96,WNW,282,0.0,-999.0,76,-99.99,,,0.00,weatherlink.com 1.10,2016-07-27 14:00:00,
2016-07-27 10:15:00,75.2,67.0,29.96,West,269,0.0,-999.0,76,-99.99,,,0.00,weatherlink.com 1.10,2016-07-27 14:15:00,
2016-07-27 10:30:00,75.9,68.0,29.97,WNW,288,3.0,-999.0,77,-99.99,,,0.00,weatherlink.com 1.10,2016-07-27 14:30:00,
2016-07-27 10:45:00,76.7,69.0,29.96,WNW,288,0.0,-999.0,77,-99.99,,,0.00,weatherlink.com 1.10,2016-07-27 14:45:00,
2016-07-27 11:00:00,77.1,69.0,29.96,West,272,4.0,-999.0,75,-99.99,,,0.00,weatherlink.com 1.10,2016-07-27 15:00:00,
2016-07-27 11:15:00,76.9,69.0,29.97,WSW,254,3.0,-999.0,77,-99.99,,,0.00,weatherlink.com 1.10,2016-07-27 15:15:00,
2016-07-27 11:30:00,77.6,69.0,29.97,WSW,248,5.0,-999.0,74,-99.99,,,0.00,weatherlink.com 1.10,2016-07-27 15:30:00,
2016-07-27 11:46:00,77.9,68.0,29.96,West,273,5.0,-999.0,72,-99.99,,,0.00,weatherlink.com 1.10,2016-07-27 15:46:00,
2016-07-27 12:00:00,78.3,70.0,29.97,WNW,289,7.0,-999.0,76,-99.99,,,0.00,weatherlink.com 1.10,2016-07-27 16:00:00,
2016-07-27 12:15:00,78.6,69.0,29.96,WNW,290,7.0,-999.0,73,-99.99,,,0.00,weatherlink.com 1.10,2016-07-27 16:15:00,
2016-07-27 12:30:00,79.0,71.0,29.96,West,265,3.0,-999.0,77,-99.99,,,0.00,weatherlink.com 1.10,2016-07-27 16:30:00,
2016-07-27 12:45:00,80.1,70.0,29.96,WNW,289,4.0,-999.0,70,-99.99,,,0.00,weatherlink.com 1.10,2016-07-27 16:45:00,
2016-07-27 13:00:00,79.9,68.0,29.96,WNW,292,4.0,-999.0,67,-99.99,,,0.00,weatherlink.com 1.10,2016-07-27 17:00:00,
2016-07-27 13:15:00,80.6,70.0,29.96,West,266,3.0,-999.0,70,-99.99,,,0.00,weatherlink.com 1.10,2016-07-27 17:15:00,
2016-07-27 13:31:00,81.0,67.0,29.95,WNW,286,7.0,-999.0,63,-99.99,,,0.00,weatherlink.com 1.10,2016-07-27 17:31:00,
2016-07-27 13:46:00,82.1,71.0,29.95,West,277,2.0,-999.0,68,-99.99,,,0.00,weatherlink.com 1.10,2016-07-27 17:46:00,
2016-07-27 14:01:00,81.8,69.0,29.94,WSW,249,3.0,-999.0,65,-99.99,,,0.00,weatherlink.com 1.10,2016-07-27 18:01:00,
2016-07-27 14:16:00,81.8,69.0,29.94,West,268,4.0,-999.0,66,-99.99,,,0.00,weatherlink.com 1.10,2016-07-27 18:16:00,
2016-07-27 14:31:00,81.3,67.0,29.94,WNW,285,0.0,-999.0,62,-99.99,,,0.00,weatherlink.com 1.10,2016-07-27 18:31:00,
2016-07-27 14:46:00,82.5,67.0,29.94,WNW,286,1.0,-999.0,59,-99.99,,,0.00,weatherlink.com 1.10,2016-07-27 18:46:00,
2016-07-27 15:01:00,82.6,68.0,29.94,West,281,5.0,-999.0,62,-99.99,,,0.00,weatherlink.com 1.10,2016-07-27 19:01:00,
2016-07-27 15:16:00,82.4,69.0,29.93,West,277,5.0,-999.0,64,-99.99,,,0.00,weatherlink.com 1.10,2016-07-27 19:16:00,
2016-07-27 15:31:00,82.9,68.0,29.93,WSW,257,5.0,-999.0,62,-99.99,,,0.00,weatherlink.com 1.10,2016-07-27 19:31:00,
2016-07-27 15:46:00,81.8,68.0,29.93,West,260,1.0,-999.0,64,-99.99,,,0.00,weatherlink.com 1.10,2016-07-27 19:46:00,
2016-07-27 16:01:00,83.4,69.0,29.93,WNW,288,5.0,-999.0,62,-99.99,,,0.00,weatherlink.com 1.10,2016-07-27 20:01:00,
2016-07-27 16:16:00,82.7,67.0,29.93,West,277,3.0,-999.0,59,-99.99,,,0.00,weatherlink.com 1.10,2016-07-27 20:16:00,
2016-07-27 16:31:00,83.6,69.0,29.92,West,277,1.0,-999.0,61,-99.99,,,0.00,weatherlink.com 1.10,2016-07-27 20:31:00,
2016-07-27 16:46:00,83.3,67.0,29.91,WSW,257,5.0,-999.0,58,-99.99,,,0.00,weatherlink.com 1.10,2016-07-27 20:46:00,
2016-07-27 17:01:00,83.9,67.0,29.91,West,264,3.0,-999.0,57,-99.99,,,0.00,weatherlink.com 1.10,2016-07-27 21:01:00,
2016-07-27 17:16:00,83.2,67.0,29.91,WSW,258,2.0,-999.0,59,-99.99,,,0.00,weatherlink.com 1.10,2016-07-27 21:16:00,
2016-07-27 17:31:00,83.2,68.0,29.91,WNW,292,2.0,-999.0,60,-99.99,,,0.00,weatherlink.com 1.10,2016-07-27 21:31:00,
2016-07-27 17:46:00,83.0,69.0,29.90,West,275,4.0,-999.0,62,-99.99,,,0.00,weatherlink.com 1.10,2016-07-27 21:46:00,
2016-07-27 18:01:00,82.6,66.0,29.90,West,275,3.0,-999.0,58,-99.99,,,0.00,weatherlink.com 1.10,2016-07-27 22:01:00,
2016-07-27 18:16:00,82.4,68.0,29.90,West,275,1.0,-999.0,61,-99.99,,,0.00,weatherlink.com 1.10,2016-07-27 22:16:00,
2016-07-27 18:31:00,81.7,67.0,29.91,West,275,2.0,-999.0,61,-99.99,,,0.00,weatherlink.com 1.10,2016-07-27 22:31:00,
2016-07-27 18:46:00,81.3,67.0,29.91,West,275,4.0,-999.0,63,-99.99,,,0.00,weatherlink.com 1.10,2016-07-27 22:46:00,
2016-07-27 19:01:00,80.3,67.0,29.91,West,276,3.0,-999.0,64,-99.99,,,0.00,weatherlink.com 1.10,2016-07-27 23:01:00,
2016-07-27 19:16:00,78.9,68.0,29.91,West,276,0.0,-999.0,70,-99.99,,,0.00,weatherlink.com 1.10,2016-07-27 23:16:00,
2016-07-27 19:31:00,76.2,68.0,29.91,West,276,0.0,-999.0,75,-99.99,,,0.00,weatherlink.com 1.10,2016-07-27 23:31:00,